Weather History for KCMH - June, 2013

Change the Weather History Date:

Tuesday, June 18, 2013

  Actual Average Record
Temperature  
Mean Temperature 73 °F 72 °F  
Max Temperature 82 °F 83 °F 99 °F (1944)
Min Temperature 63 °F 62 °F 47 °F (1986)
Degree Days  
Heating Degree Days 0 0  
Month to date heating degree days 6 18  
Since 1 June heating degree days 6 18  
Since 1 July heating degree days 5160 5245  
Cooling Degree Days 8 8  
Month to date cooling degree days 113 108  
Year to date cooling degree days 274 190  
Since 1 June cooling degree days 113 108  
Growing Degree Days 25 (Base 50)    
Moisture  
Dew Point 63 °F    
Average Humidity 69    
Maximum Humidity 90    
Minimum Humidity 47    
Precipitation  
Precipitation 0.33 in 0.13 in 1.55 in (1939)
Month to date precipitation 3.46 2.46  
Year to date precipitation 15.93 18.03  
Snow  
Snow 0.00 in 0.00 in - ()
Month to date snowfall 0.0 0.0  
Since 1 June snowfall 0.0 0.0  
Since 1 July snowfall 41.2 26.7  
Snow Depth 0.00 in    
Sea Level Pressure  
Sea Level Pressure 29.89 in    
Wind  
Wind Speed 8 mph (NNW)    
Max Wind Speed 17 mph    
Max Gust Speed 22 mph    
Visibility 10 miles    
Events Rain , Thunderstorm    
T = Trace of Precipitation, MM = Missing Value Source: NWS Daily Summary

Daily Weather History Graph

Daily Weather History Graph

Search for Another Location

Airport or City:

Trip Planner

Search our weather history database for the weather conditions in past years. The results will help you decide how hot, cold, wet, or windy it might be!

Date:

Astronomy

Jun. 18, 2013 Rise Set
Actual Time 6:02 AM EDT 9:03 PM EDT
Civil Twilight 5:29 AM EDT 9:36 PM EDT
Nautical Twilight 4:47 AM EDT 10:17 PM EDT
Astronomical Twilight 3:59 AM EDT 11:06 PM EDT
Moon 3:46 PM EDT (6/18) 2:09 AM EDT (6/18)
Length of Visible Light 16h 06m
Length of Day
15h 00m
Waxing Gibbous, 70% of the Moon is Illuminated
Jun 18
Waxing Gibbous
Jun 23
Full
Jun 30
Last Quarter
Jul 8
New
Jul 15
First Quarter

Hourly Weather History & Observations

Time (EDT) Temp. Heat Index Dew Point Humidity Pressure Visibility Wind Dir Wind Speed Gust Speed Precip Events Conditions
12:51 AM 73.0 °F - 64.9 °F 76% 29.87 in 10.0 mi Calm Calm - N/A   Overcast
1:51 AM 72.0 °F - 66.0 °F 81% 29.87 in 10.0 mi ESE 3.5 mph - N/A   Overcast
2:51 AM 71.1 °F - 66.0 °F 84% 29.86 in 10.0 mi Calm Calm - N/A   Overcast
3:51 AM 71.1 °F - 66.0 °F 84% 29.85 in 10.0 mi South 4.6 mph - N/A   Overcast
4:51 AM 70.0 °F - 66.0 °F 87% 29.84 in 10.0 mi Calm Calm - N/A   Overcast
5:51 AM 70.0 °F - 66.9 °F 90% 29.85 in 10.0 mi Calm Calm - N/A   Overcast
6:51 AM 71.1 °F - 66.9 °F 87% 29.86 in 8.0 mi South 4.6 mph - N/A   Overcast
7:51 AM 71.1 °F - 61.0 °F 70% 29.86 in 7.0 mi East 8.1 mph - 0.32 in Rain , Thunderstorm Light Thunderstorms and Rain
8:29 AM 68.0 °F - 60.8 °F 78% 29.89 in 10.0 mi SE 4.6 mph - 0.01 in   Overcast
8:51 AM 69.1 °F - 62.1 °F 78% 29.88 in 10.0 mi SW 6.9 mph - 0.01 in   Overcast
9:51 AM 71.1 °F - 66.9 °F 87% 29.89 in 7.0 mi West 9.2 mph - N/A   Overcast
10:51 AM 72.0 °F - 66.0 °F 81% 29.91 in 10.0 mi SSW 6.9 mph - N/A   Overcast
11:51 AM 73.9 °F - 66.0 °F 76% 29.91 in 10.0 mi West 5.8 mph - N/A   Overcast
12:51 PM 75.9 °F - 66.0 °F 71% 29.89 in 10.0 mi West 4.6 mph - N/A   Mostly Cloudy
1:51 PM 79.0 °F - 64.9 °F 62% 29.88 in 10.0 mi Calm Calm - N/A   Mostly Cloudy
2:51 PM 79.0 °F - 64.0 °F 60% 29.87 in 10.0 mi North 11.5 mph - N/A   Mostly Cloudy
3:51 PM 81.0 °F 82.2 °F 63.0 °F 54% 29.86 in 10.0 mi NW 12.7 mph - N/A   Scattered Clouds
4:51 PM 82.0 °F 82.7 °F 61.0 °F 49% 29.86 in 10.0 mi NNW 12.7 mph - N/A   Scattered Clouds
5:51 PM 81.0 °F 81.7 °F 61.0 °F 50% 29.87 in 10.0 mi NNE 13.8 mph - N/A   Scattered Clouds
6:51 PM 78.1 °F - 62.1 °F 58% 29.88 in 10.0 mi North 17.3 mph - N/A   Scattered Clouds
7:51 PM 75.0 °F - 61.0 °F 62% 29.90 in 10.0 mi North 15.0 mph - N/A   Scattered Clouds
8:51 PM 72.0 °F - 59.0 °F 64% 29.94 in 10.0 mi North 9.2 mph - N/A   Mostly Cloudy
9:51 PM 70.0 °F - 57.0 °F 63% 29.95 in 10.0 mi North 13.8 mph - N/A   Mostly Cloudy
10:51 PM 68.0 °F - 55.0 °F 63% 29.98 in 10.0 mi North 9.2 mph - N/A   Mostly Cloudy
11:51 PM 64.9 °F - 54.0 °F 68% 29.99 in 10.0 mi North 6.9 mph - N/A   Mostly Cloudy